Location: Christianberg
(48.9086°N, 14.0209°E)
Time: 20:53:32
(UTC+00:00)

FALCON 9 DEB - Pass Details

Date: 20 June 2021
Orbit: 422 x 432 km, 53.0° (Epoch: 02 August)

Event Time Altitude Azimuth Distance (km) Brightness Sun altitude
Rises 01:33:50 0° 291° (WNW) 2,391 6.7 -10.4°
Reaches altitude 10° 01:36:07 10° 279° (W) 1,519 5.6 -10.2°
Maximum altitude 01:39:04 28° 219° (SW) 839 4.0 -10.0°
Drops below altitude 10° 01:42:00 10° 159° (SSE) 1,506 5.5 -9.7°
Sets 01:44:15 0° 147° (SSE) 2,365 6.6 -9.5°
